Lexington, NE

6:19 AM CST on November 21, 2019 (GMT -0600)
Kelly

Weather History for KLXN - October, 2019

Change the Weather History Date:

Monday, October 21, 2019

  Actual Average Record
Temperature  
Mean Temperature 44 °F -  
Max Temperature 52 °F 60 °F 82 °F (2003)
Min Temperature 36 °F 35 °F 29 °F (2013)
Degree Days  
Heating Degree Days 21    
Moisture  
Dew Point 30 °F    
Average Humidity 59    
Maximum Humidity 75    
Minimum Humidity 34    
Precipitation  
Precipitation 0.00 in - - ()
Sea Level Pressure  
Sea Level Pressure 29.72 in    
Wind  
Wind Speed 29 mph (NW)    
Max Wind Speed 40 mph    
Max Gust Speed 54 mph    
Visibility 10 miles    
Events      
Averages and records for this station are not official NWS values.
T = Trace of Precipitation, MM = Missing Value Source: NWS Daily Summary

Daily Weather History Graph

Daily Weather History Graph

Search for Another Location

Airport or City:

Astronomy

Oct. 21, 2019 Rise Set
Actual Time 7:56 AM CDT 6:50 PM CDT
Civil Twilight 7:28 AM CDT 7:17 PM CDT
Nautical Twilight 6:56 AM CDT 7:49 PM CDT
Astronomical Twilight 6:25 AM CDT 8:21 PM CDT
Moon 12:00 AM CDT 3:17 PM CDT
Length of Visible Light 11h 49m
Length of Day
10h 53m
Waning Gibbous, 48% of the Moon is Illuminated
Oct 21
Waning Gibbous
Oct 27
New
Nov 4
First Quarter
Nov 12
Full
Nov 19
Last Quarter

Hourly Weather History & Observations

Time (CDT) Temp. Windchill Dew Point Humidity Pressure Visibility Wind Dir Wind Speed Gust Speed Precip Events Conditions
12:15 AM 41.9 °F 32.1 °F 32.9 °F 70% 29.55 in 10.0 mi WNW 24.2 mph 33.4 mph N/A   Mostly Cloudy
12:35 AM 41.9 °F 31.7 °F 32.4 °F 69% 29.55 in 10.0 mi WNW 26.5 mph 34.5 mph N/A   Mostly Cloudy
12:55 AM 41.9 °F 31.5 °F 32.9 °F 70% 29.56 in 10.0 mi WNW 27.6 mph 39.1 mph N/A   Overcast
1:15 AM 41.4 °F 30.7 °F 33.1 °F 72% 29.57 in 10.0 mi NW 27.6 mph 36.8 mph N/A   Overcast
1:35 AM 41.0 °F 29.7 °F 32.2 °F 71% 29.57 in 10.0 mi WNW 31.1 mph 41.4 mph N/A   Mostly Cloudy
1:55 AM 39.9 °F 28.8 °F 32.0 °F 73% 29.56 in 10.0 mi WNW 27.6 mph 39.1 mph N/A   Mostly Cloudy
2:15 AM 41.2 °F 30.5 °F 32.4 °F 71% 29.56 in 10.0 mi NW 27.6 mph 40.3 mph N/A   Mostly Cloudy
2:35 AM 42.1 °F 31.1 °F 32.5 °F 69% 29.56 in 10.0 mi NW 31.1 mph 44.9 mph N/A   Overcast
2:55 AM 42.1 °F 30.0 °F 32.9 °F 70% 29.57 in 10.0 mi NW 39.1 mph 54.1 mph N/A   Overcast
3:15 AM 41.4 °F 29.6 °F 33.4 °F 73% 29.57 in 10.0 mi NW 34.5 mph 44.9 mph N/A   Overcast
3:35 AM 41.2 °F 29.5 °F 33.8 °F 75% 29.57 in 10.0 mi NW 33.4 mph 41.4 mph N/A   Overcast
3:55 AM 41.9 °F 31.1 °F 33.8 °F 73% 29.56 in 10.0 mi NW 29.9 mph 44.9 mph N/A   Overcast
4:15 AM 41.9 °F 30.2 °F 33.8 °F 73% 29.55 in 10.0 mi NW 35.7 mph 42.6 mph N/A   Overcast
4:35 AM 42.1 °F 30.0 °F 33.6 °F 72% 29.56 in 10.0 mi NW 39.1 mph 48.3 mph N/A   Overcast
4:55 AM 42.6 °F 32.2 °F 33.1 °F 69% 29.57 in 10.0 mi NW 28.8 mph 40.3 mph N/A   Overcast
5:15 AM 43.7 °F 33.3 °F 32.9 °F 66% 29.59 in 10.0 mi NW 31.1 mph 43.7 mph N/A   Overcast
5:35 AM 44.2 °F 34.1 °F 32.9 °F 64% 29.60 in 10.0 mi NW 31.1 mph 43.7 mph N/A   Overcast
5:55 AM 44.6 °F 33.6 °F 32.7 °F 63% 29.60 in 10.0 mi NW 38.0 mph 49.5 mph N/A   Overcast
6:15 AM 44.6 °F 35.1 °F 32.5 °F 63% 29.60 in 10.0 mi NW 27.6 mph 40.3 mph N/A   Overcast
6:35 AM 44.6 °F 34.4 °F 32.9 °F 64% 29.60 in 10.0 mi WNW 32.2 mph 41.4 mph N/A   Overcast
6:55 AM 44.6 °F 34.7 °F 32.7 °F 63% 29.59 in 10.0 mi NW 29.9 mph 43.7 mph N/A   Overcast
7:15 AM 44.6 °F 35.5 °F 32.9 °F 64% 29.59 in 10.0 mi WNW 25.3 mph 38.0 mph N/A   Overcast
7:35 AM 44.6 °F 34.2 °F 32.9 °F 64% 29.58 in 10.0 mi NW 33.4 mph 42.6 mph N/A   Overcast
7:55 AM 44.6 °F 34.2 °F 32.9 °F 64% 29.59 in 10.0 mi NW 33.4 mph 41.4 mph N/A   Overcast
8:15 AM 44.6 °F 35.9 °F 32.9 °F 64% 29.58 in 10.0 mi NW 23.0 mph 40.3 mph N/A   Overcast
8:35 AM 44.6 °F 33.5 °F 32.2 °F 62% 29.59 in 7.0 mi NW 39.1 mph 54.1 mph N/A   Overcast
8:55 AM 43.9 °F 32.3 °F 32.2 °F 63% 29.60 in 7.0 mi NW 40.3 mph 49.5 mph N/A   Overcast
9:15 AM 43.9 °F 33.2 °F 32.4 °F 64% 29.61 in 10.0 mi NW 33.4 mph 46.0 mph N/A   Overcast
9:35 AM 43.7 °F 32.7 °F 32.4 °F 64% 29.62 in 7.0 mi NNW 35.7 mph 50.6 mph N/A   Overcast
9:55 AM 43.7 °F 33.0 °F 32.4 °F 64% 29.63 in 7.0 mi NNW 33.4 mph 49.5 mph N/A   Overcast
10:15 AM 43.7 °F 32.7 °F 32.2 °F 64% 29.64 in 10.0 mi NW 35.7 mph 44.9 mph N/A   Overcast
10:35 AM 43.7 °F 33.0 °F 32.2 °F 64% 29.66 in 10.0 mi NW 33.4 mph 42.6 mph N/A   Overcast
10:55 AM 43.9 °F 33.2 °F 32.2 °F 63% 29.66 in 10.0 mi NW 33.4 mph 43.7 mph N/A   Overcast
11:15 AM 43.9 °F 33.6 °F 32.2 °F 63% 29.67 in 10.0 mi NW 31.1 mph 38.0 mph N/A   Overcast
11:35 AM 43.9 °F 33.9 °F 32.2 °F 63% 29.68 in 10.0 mi NW 28.8 mph 40.3 mph N/A   Overcast
11:55 AM 44.8 °F 34.8 °F 32.4 °F 62% 29.68 in 10.0 mi NW 31.1 mph 39.1 mph N/A   Overcast
12:15 PM 45.1 °F 34.8 °F 32.2 °F 60% 29.69 in 10.0 mi NW 34.5 mph 42.6 mph N/A   Overcast
12:35 PM 45.5 °F 35.6 °F 32.4 °F 60% 29.70 in 10.0 mi NW 32.2 mph 41.4 mph N/A   Overcast
12:55 PM 45.5 °F 34.9 °F 32.5 °F 61% 29.71 in 10.0 mi NNW 38.0 mph 44.9 mph N/A   Overcast
1:15 PM 45.7 °F 35.4 °F 32.9 °F 61% 29.71 in 7.0 mi NW 35.7 mph 49.5 mph N/A   Overcast
1:35 PM 46.8 °F - 33.8 °F 61% 29.72 in 10.0 mi NW 36.8 mph 48.3 mph N/A   Overcast
1:55 PM 46.9 °F - 34.9 °F 63% 29.73 in 7.0 mi NW 39.1 mph 48.3 mph N/A   Overcast
2:15 PM 47.1 °F - 35.1 °F 63% 29.73 in 10.0 mi NW 38.0 mph 48.3 mph N/A   Overcast
2:35 PM 47.3 °F - 35.1 °F 62% 29.74 in 10.0 mi NW 35.7 mph 46.0 mph N/A   Overcast
2:55 PM 46.8 °F - 34.5 °F 62% 29.75 in 7.0 mi NW 40.3 mph 49.5 mph N/A   Overcast
3:15 PM 47.8 °F - 34.3 °F 60% 29.76 in 10.0 mi NW 40.3 mph 51.8 mph N/A   Overcast
3:35 PM 47.7 °F - 33.3 °F 57% 29.77 in 10.0 mi NNW 34.5 mph 47.2 mph N/A   Overcast
3:55 PM 49.3 °F - 32.0 °F 51% 29.78 in 10.0 mi NW 40.3 mph 46.0 mph N/A   Overcast
4:15 PM 50.4 °F - 30.0 °F 46% 29.79 in 7.0 mi NNW 40.3 mph 47.2 mph N/A   Overcast
4:35 PM 52.0 °F - 26.6 °F 37% 29.80 in 7.0 mi NW 38.0 mph 48.3 mph N/A   Mostly Cloudy
4:55 PM 50.9 °F - 23.5 °F 34% 29.82 in 4.0 mi NNW 38.0 mph 48.3 mph N/A   Haze
5:15 PM 50.0 °F - 22.5 °F 34% 29.83 in 7.0 mi NW 40.3 mph 51.8 mph N/A   Scattered Clouds
5:35 PM 49.3 °F - 23.0 °F 36% 29.84 in 10.0 mi NNW 28.8 mph 42.6 mph N/A   Clear
5:55 PM 50.0 °F - 22.3 °F 34% 29.85 in 10.0 mi NNW 28.8 mph 43.7 mph N/A   Clear
6:15 PM 49.6 °F - 23.0 °F 35% 29.86 in 10.0 mi NNW 23.0 mph 34.5 mph N/A   Clear
6:35 PM 49.3 °F - 23.5 °F 36% 29.87 in 10.0 mi NW 28.8 mph 39.1 mph N/A   Clear
6:55 PM 48.2 °F - 23.7 °F 38% 29.89 in 10.0 mi NW 29.9 mph 35.7 mph N/A   Clear
7:15 PM 47.5 °F - 23.5 °F 39% 29.90 in 10.0 mi NW 17.3 mph - N/A   Clear
7:35 PM 46.6 °F - 23.2 °F 40% 29.91 in 10.0 mi NW 20.7 mph 27.6 mph N/A   Clear
7:55 PM 45.9 °F 38.3 °F 23.0 °F 41% 29.92 in 10.0 mi NW 19.6 mph 25.3 mph N/A   Clear
8:15 PM 43.9 °F 37.2 °F 23.4 °F 44% 29.93 in 10.0 mi NW 13.8 mph 18.4 mph N/A   Clear
8:35 PM 44.1 °F 36.5 °F 23.5 °F 44% 29.93 in 10.0 mi NW 17.3 mph 21.9 mph N/A   Clear
8:55 PM 43.2 °F 36.6 °F 23.5 °F 46% 29.94 in 10.0 mi WNW 12.7 mph - N/A   Clear
9:15 PM 41.5 °F 35.4 °F 23.5 °F 49% 29.94 in 10.0 mi WNW 10.4 mph - N/A   Clear
9:35 PM 39.4 °F 32.7 °F 24.1 °F 54% 29.95 in 10.0 mi WNW 10.4 mph - N/A   Clear
9:55 PM 38.5 °F 32.1 °F 24.4 °F 57% 29.95 in 10.0 mi WNW 9.2 mph - N/A   Clear
10:15 PM 37.2 °F 29.6 °F 24.3 °F 60% 29.96 in 10.0 mi WNW 11.5 mph - N/A   Clear
10:35 PM 36.9 °F 29.6 °F 24.8 °F 62% 29.96 in 10.0 mi WNW 10.4 mph - N/A   Clear
10:55 PM 36.5 °F 28.7 °F 25.3 °F 64% 29.97 in 10.0 mi WNW 11.5 mph - N/A   Clear
11:15 PM 36.3 °F 28.9 °F 25.2 °F 64% 29.97 in 10.0 mi WNW 10.4 mph - N/A   Clear
11:35 PM 37.4 °F 29.3 °F 24.8 °F 60% 29.97 in 10.0 mi WNW 12.7 mph - N/A   Clear
11:55 PM 37.0 °F 29.3 °F 24.8 °F 61% 29.98 in 10.0 mi WNW 11.5 mph - N/A   Clear